Regional Weather Roundup
Issued by NWS Goodland, KS

Home | Current Version | Previous Version | Graphics & Text | Print | Product List | Glossary On
Versions: 1 2 3 4 5 6 7 8 9 10 11 12 13 14 15 16 17 18 19 20 21 22 23 24 25 26 27 28 29 30 31 32 33 34 35 36 37 38 39 40 41 42 43 44 45 46 47 48 49 50
000
ASUS43 KGLD 251608
RWRGLD

GOODLAND FORECAST AREA HOURLY WEATHER ROUNDUP
NATIONAL WEATHER SERVICE GOODLAND KS
1000 AM MDT THU AUG 25 2016

...OFFICIAL OBSERVATIONS...

CITY           SKY/WX    TMP DP  RH WIND       PRES   REMARKS
GOODLAND KS    SUNNY     65  50  58 CALM      30.25S
HILL CITY KS   MOSUNNY   65  58  78 NE6       30.22R
IMPERIAL NEB   SUNNY     67  50  54 NE10      30.26R
MCCOOK NEB     MOSUNNY   70  49  47 NE9       30.23R
AKRON CO       SUNNY     65  42  43 E8        30.28S
BURLINGTON CO  SUNNY     65  47  52 E7        30.27S
LIMON CO       SUNNY     65  39  38 CALM      30.29R
$$

...UNOFFICIAL OBSERVATIONS...

CITY           SKY/WX    TMP DP  RH WIND       PRES   REMARKS
COLBY KS       SUNNY     70  52  52 CALM      30.25S
NORTON KS      PTSUNNY   68  48  49 S3        30.22R
SHARON SPRINGS   N/A     64  57  78 CALM        N/A
KIT CARSON CO    N/A     64  48  56 CALM        N/A
YUMA CO          N/A     64  48  56 E6          N/A
$$




USA.gov is the U.S. government's official web portal to all federal, state and local government web resources and services.